This is the latest recevied weather packets stored in our database for station/object KD0KHX-10. If no packets are shown the sender has not sent any weather packets the latest 10 day(s).
| Time | Temp. | Humidity | Pressure | Rain* | Wind** | Luminosity | Snow |
|---|---|---|---|---|---|---|---|
| 1777739538 | 13.33° C | 46% | 1016.3 hPa | 0 mm | - | - | - |
| 1777738938 | 12.78° C | 48% | 1016.4 hPa | 0 mm | - | - | - |
| 1777738172 | 12.22° C | 49% | 1016.6 hPa | 0 mm | - | - | - |
| 1777737707 | 12.22° C | 50% | 1016.6 hPa | 0 mm | - | - | - |
| 1777737003 | 11.67° C | 50% | 1016.7 hPa | 0 mm | - | - | - |
| 1777736673 | 11.67° C | 51% | 1016.6 hPa | 0 mm | - | - | - |
| 1777736372 | 11.67° C | 52% | 1016.7 hPa | 0 mm | - | - | - |
| 1777735937 | 11.11° C | 53% | 1016.7 hPa | 0 mm | - | - | - |
| 1777735503 | 11.11° C | 54% | 1016.7 hPa | 0 mm | - | - | - |
| 1777735337 | 10.56° C | 54% | 1016.6 hPa | 0 mm | - | - | - |
| 1777734903 | 10.56° C | 54% | 1016.6 hPa | 0 mm | - | - | - |
| 1777734603 | 10.56° C | 53% | 1016.7 hPa | 0 mm | - | - | - |
| 1777734303 | 10.56° C | 54% | 1016.6 hPa | 0 mm | - | - | - |
| 1777734137 | 10° C | 54% | 1016.7 hPa | 0 mm | - | - | - |
| 1777734009 | 10° C | 53% | 1016.7 hPa | 0 mm | - | - | - |
| 1777733403 | 9.44° C | 56% | 1016.6 hPa | 0 mm | - | - | - |
| 1777732803 | 8.89° C | 58% | 1016.8 hPa | 0 mm | - | - | - |
| 1777732503 | 8.89° C | 59% | 1016.8 hPa | 0 mm | - | - | - |
| 1777732203 | 8.89° C | 60% | 1016.8 hPa | 0 mm | - | - | - |
| 1777731903 | 8.89° C | 61% | 1016.8 hPa | 0 mm | - | - | - |
| 1777731872 | 8.89° C | 61% | 1016.8 hPa | 0 mm | - | - | - |
| 1777731303 | 8.33° C | 66% | 1016.8 hPa | 0 mm | - | - | - |
| 1777731108 | 8.33° C | 67% | 1016.8 hPa | 0 mm | - | - | - |
| 1777731003 | 8.33° C | 68% | 1016.8 hPa | 0 mm | - | - | - |
| 1777730373 | 7.78° C | 72% | 1016.8 hPa | 0 mm | - | - | - |
* Rain latest hour (hover to see other rain measurements)
** Current wind speed in m/s (hover to see current wind gust speed)